• Join FlightAware (Why Join?)
  • Login
  • US Flag GB Flag 
14:24 EDT


 

Airport Tracker/Info


-or-


 

Live Flight TrackerFlight Track Log ✈ SWA378 ✈ 29-Apr-2013 ✈ KLAX - KATL

Flight Track Log - Related Links

Times and Time Zones

All times are in EDT time to prevent confusion due to time zone crossing. See the SWA378 flight status page for this flight to view local times or setup timezone preferences in your user account.

Time Position Orientation Groundspeed Altitude Reporting Facility
EDT Latitude Longitude Course Direction KTS MPH feet Rate Location/Type
13:23 33.8906 -118.5289 212° Southwest 254 292 4,100  Level Los Angeles Center
13:24 33.8156 -118.5228 176° South 266 306 6,800 2,580 Climbing Los Angeles Center
13:25 33.7389 -118.5233 180° South 279 321 9,500 2,520 Climbing Los Angeles Center
13:26 33.6817 -118.4653 140° Southeast 303 349 12,100 2,340 Climbing Los Angeles Center
13:27 33.6546 -118.3925 121° Southeast  Level FlightAware Approximate
13:27 33.6450 -118.3411 110° East 345 397 14,400  Level Los Angeles Center
13:28 33.6439 -118.2250 91° East 359 413 17,000 2,400 Climbing Los Angeles Center
13:29 33.6442 -118.1033 90° East 369 425 19,400 1,980 Climbing Los Angeles Center
13:30 33.6442 -117.9761 90° East 379 436 21,100 1,740 Climbing Los Angeles Center
13:31 33.6431 -117.8089 90° East 412 474 23,000 1,500 Climbing Los Angeles Center
13:32 33.6425 -117.6675 90° East 422 486 24,200 1,500 Climbing Los Angeles Center
13:33 33.6419 -117.5244 90° East 428 493 26,100 1,680 Climbing Los Angeles Center
13:34 33.6417 -117.3786 90° East 437 503 27,800 1,440 Climbing Los Angeles Center
13:35 33.6400 -117.2300 91° East 447 514 29,200 1,620 Climbing Los Angeles Center
13:36 33.6378 -117.0472 91° East 458 527 31,200 1,740 Climbing Los Angeles Center
13:37 33.6369 -116.8978 90° East 454 522 32,800 1,440 Climbing Los Angeles Center
13:39 33.6361 -116.7433 90° East 449 517 34,200 1,260 Climbing Los Angeles Center
13:40 33.6347 -116.5925 91° East 452 520 35,500 1,200 Climbing Los Angeles Center
13:41 33.6317 -116.4456 91° East 442 509 36,700 720 Climbing Los Angeles Center
13:42 33.6425 -116.2997 85° East 437 503 37,000 120 Climbing Los Angeles Center
13:43 33.6675 -116.1542 78° East 444 511 37,000  Level Los Angeles Center
13:44 33.6906 -116.0114 79° East 438 504 37,000  Level Los Angeles Center
13:45 33.7197 -115.8414 78° East 430 495 37,000  Level Los Angeles Center
13:46 33.7433 -115.6978 79° East 436 502 37,000  Level Los Angeles Center
13:47 33.7667 -115.5567 79° East 433 498 37,000  Level Los Angeles Center
13:48 33.7906 -115.4131 79° East 437 503 37,000  Level Los Angeles Center
13:49 33.8128 -115.2697 79° East 435 501 37,000  Level Los Angeles Center
13:50 33.8369 -115.1247 79° East 442 509 37,000  Level Los Angeles Center
13:51 33.8636 -114.9533 79° East 435 501 37,000  Level Los Angeles Center
13:52 33.8917 -114.8111 77° East 437 503 37,000  Level Los Angeles Center
13:53 33.9106 -114.6639 81° East 442 509 37,000  Level Los Angeles Center
13:54 33.9342 -114.5208 79° East 439 505 37,000  Level Los Angeles Center
13:55 33.9567 -114.3778 79° East 437 503 37,000  Level Los Angeles Center
13:55 33.9656 -114.3219 79° East 440 506 37,000  Level Albuquerque Center
13:56 33.9914 -114.1542 79° East 439 505 37,000  Level Albuquerque Center
13:58 34.0122 -114.0106 80° East 438 504 37,000  Level Albuquerque Center
13:59 34.0350 -113.8658 79° East 439 505 37,000  Level Albuquerque Center
14:00 34.0564 -113.7208 80° East 440 506 37,000  Level Albuquerque Center
14:01 34.0775 -113.5750 80° East 441 507 37,000  Level Albuquerque Center
14:02 34.0981 -113.4286 80° East 443 510 37,000  Level Albuquerque Center
14:03 34.1253 -113.2517 79° East 446 513 37,000  Level Albuquerque Center
14:04 34.1450 -113.1044 81° East 446 513 37,000  Level Albuquerque Center
14:05 34.1658 -112.9575 80° East 446 513 37,000  Level Albuquerque Center
14:06 34.1869 -112.8108 80° East 444 511 37,000  Level Albuquerque Center
14:07 34.2075 -112.6631 80° East 445 512 37,000  Level Albuquerque Center
14:08 34.2289 -112.5167 80° East 444 511 37,000  Level Albuquerque Center
14:09 34.2536 -112.3406 80° East 442 509 37,000  Level Albuquerque Center
14:10 34.2733 -112.1953 81° East 439 505 37,000  Level Albuquerque Center
14:11 34.2928 -112.0467 81° East 443 510 37,000  Level Albuquerque Center
14:12 34.3128 -111.8972 81° East 445 512 37,000  Level Albuquerque Center
14:13 34.3333 -111.7472 81° East 447 514 37,000  Level Albuquerque Center
14:14 34.3531 -111.5961 81° East 450 518 37,000  Level Albuquerque Center
14:15 34.3719 -111.4461 81° East 450 518 37,000  Level Albuquerque Center
14:16 34.3908 -111.2972 81° East 448 516 37,000  Level Albuquerque Center
14:17 34.4108 -111.1481 81° East 449 517 37,000  Level Albuquerque Center
14:18 34.4339 -110.9678 81° East 450 518 37,000  Level Albuquerque Center
14:19 34.4517 -110.8206 82° East 447 514 37,000  Level Albuquerque Center
14:20 34.4714 -110.6731 81° East 445 512 37,000  Level Albuquerque Center
14:21 34.4897 -110.5253 81° East 445 512 37,000  Level Albuquerque Center
14:22 34.5075 -110.3656 82° East 446 513 37,000  Level Albuquerque Center
14:23 34.5278 -110.1997 82° East 446 513 37,000  Level Albuquerque Center
14:24 34.5439 -110.0558 82° East 448 516 37,000  Level Albuquerque Center
14:25 34.5614 -109.9144 81° East 446 513 37,000  Level Albuquerque Center
14:26 34.5803 -109.7489 82° East 446 513 37,000  Level Albuquerque Center
14:27 34.5972 -109.6047 82° East 448 516 37,000  Level Albuquerque Center
14:28 34.6156 -109.4364 82° East 451 519 37,000  Level Albuquerque Center
14:30 34.6319 -109.2919 82° East 452 520 37,000  Level Albuquerque Center
14:31 34.6511 -109.1239 82° East 452 520 37,000  Level Albuquerque Center
14:32 34.6658 -108.9792 83° East 452 520 37,000  Level Albuquerque Center
14:33 34.6858 -108.8111 82° East 452 520 37,000  Level Albuquerque Center
14:34 34.7008 -108.6658 83° East 453 521 37,000  Level Albuquerque Center
14:35 34.7181 -108.4967 83° East 453 521 37,000  Level Albuquerque Center
14:36 34.7325 -108.3539 83° East 454 522 37,000  Level Albuquerque Center
14:37 34.7492 -108.2033 82° East 452 520 37,000  Level Albuquerque Center
14:38 34.7644 -108.0525 83° East 451 519 37,000  Level Albuquerque Center
14:39 34.7792 -107.9006 83° East 452 520 37,000  Level Albuquerque Center
14:40 34.7944 -107.7492 83° East 451 519 37,000  Level Albuquerque Center
14:41 34.8111 -107.5675 84° East 452 520 37,000  Level Albuquerque Center
14:42 34.8258 -107.4147 83° East 455 524 37,000  Level Albuquerque Center
14:43 34.8406 -107.2622 83° East 456 525 37,000  Level Albuquerque Center
14:44 34.8583 -107.0897 83° East 461 531 37,000  Level Albuquerque Center
14:45 34.8708 -106.9439 84° East 455 524 37,000  Level Albuquerque Center
14:46 34.8831 -106.7753 85° East 446 513 37,000  Level Albuquerque Center
14:47 34.8975 -106.6283 83° East 451 519 37,000  Level Albuquerque Center
14:48 34.9108 -106.4719 84° East 468 539 37,000  Level Albuquerque Center
14:49 34.9236 -106.3178 84° East 462 532 37,000  Level Albuquerque Center
14:50 34.9361 -106.1639 84° East 460 529 37,000  Level Albuquerque Center
14:51 34.9517 -105.9789 84° East 459 528 37,000  Level Albuquerque Center
14:52 34.9642 -105.8267 84° East 459 528 37,000  Level Albuquerque Center
14:53 34.9781 -105.6714 84° East 457 526 37,000  Level Albuquerque Center
14:54 34.9894 -105.5150 85° East 459 528 37,000  Level Albuquerque Center
14:55 35.0011 -105.3608 85° East 456 525 37,000  Level Albuquerque Center
14:56 35.0144 -105.2050 84° East 458 527 37,000  Level Albuquerque Center
14:57 35.0289 -105.0247 84° East 455 524 37,000  Level Albuquerque Center
14:58 35.0397 -104.8694 85° East 457 526 37,000  Level Albuquerque Center
14:59 35.0511 -104.7144 85° East 456 525 37,000  Level Albuquerque Center
15:00 35.0622 -104.5611 85° East 453 521 37,000  Level Albuquerque Center
15:01 35.0758 -104.3875 84° East 459 528 37,000  Level Albuquerque Center
15:03 35.0881 -104.2325 84° East 460 529 37,000  Level Albuquerque Center
15:04 35.0969 -104.0753 86° East 464 534 37,000  Level Albuquerque Center
15:05 35.1078 -103.9136 85° East 464 534 37,000  Level Albuquerque Center
15:06 35.1178 -103.7558 86° East 465 535 37,000  Level Albuquerque Center
15:07 35.1286 -103.6000 85° East 461 531 37,000  Level Albuquerque Center
15:08 35.1378 -103.4417 86° East 463 533 37,000  Level Albuquerque Center
15:09 35.1472 -103.2853 86° East 461 531 37,000  Level Albuquerque Center
15:10 35.1539 -103.1039 87° East 457 526 37,000  Level Albuquerque Center
15:11 35.1603 -102.9486 87° East 455 524 37,000  Level Albuquerque Center
15:12 35.1661 -102.8017 87° East 456 525 37,000  Level Albuquerque Center
15:13 35.1722 -102.6475 87° East 455 524 37,000  Level Albuquerque Center
15:14 35.1786 -102.4928 87° East 457 526 37,000  Level Albuquerque Center
15:15 35.1844 -102.3081 88° East 455 524 37,000  Level Albuquerque Center
15:16 35.1903 -102.1550 87° East 453 521 37,000  Level Albuquerque Center
15:17 35.1956 -102.0011 88° East 454 522 37,000  Level Albuquerque Center
15:18 35.2031 -101.8331 87° East 454 522 37,000  Level Albuquerque Center
15:19 35.2075 -101.6769 88° East 455 524 37,000  Level Albuquerque Center
15:20 35.2131 -101.5247 87° East 456 525 37,000  Level Albuquerque Center
15:21 35.2178 -101.3697 88° East 457 526 37,000  Level Albuquerque Center
15:22 35.2222 -101.2122 88° East 457 526 37,000  Level Albuquerque Center
15:23 35.2264 -101.0586 88° East 455 524 37,000  Level Albuquerque Center
15:24 35.2314 -100.9044 88° East 455 524 37,000  Level Albuquerque Center
15:25 35.2361 -100.7194 88° East 455 524 37,000  Level Albuquerque Center
15:26 35.2381 -100.5656 89° East 454 522 37,000  Level Albuquerque Center
15:27 35.2417 -100.4100 88° East 456 525 37,000  Level Albuquerque Center
15:28 35.2431 -100.2556 89° East 456 525 37,000  Level Albuquerque Center
15:29 35.2464 -100.1014 88° East 456 525 37,000  Level Albuquerque Center
15:30 35.2497 -99.9494 88° East 453 521 37,000  Level Albuquerque Center
15:31 35.2525 -99.7956 89° East 452 520 37,000 420 Level Albuquerque Center
15:32 35.2556 -99.6144 89° East 449 517 37,900 840 Climbing Albuquerque Center
15:33 35.2586 -99.4625 89° East 448 516 38,800 660 Climbing Albuquerque Center
15:34 35.2575 -99.3686 91° East 443 510 39,000 120 Climbing Fort Worth Center
15:35 35.2597 -99.2186 89° East 443 510 39,000  Level Fort Worth Center
15:36 35.2617 -99.0636 89° East 443 510 39,000  Level Fort Worth Center
15:37 35.2636 -98.9111 89° East 443 510 39,000  Level Fort Worth Center
15:38 35.2633 -98.7536 90° East 443 510 39,000  Level Fort Worth Center
15:39 35.2669 -98.6036 88° East 443 510 39,000  Level Fort Worth Center
15:40 35.2661 -98.4739 90° East 434 499 39,000  Level Fort Worth Center
15:41 35.2675 -98.3189 89° East 429 494 39,000  Level Fort Worth Center
15:42 35.2664 -98.1686 90° East 435 501 39,000  Level Fort Worth Center
15:43 35.2672 -98.0161 90° East 440 506 39,000  Level Fort Worth Center
15:44 35.2656 -97.8636 91° East 440 506 39,000  Level Fort Worth Center
15:45 35.2661 -97.7111 90° East 440 506 39,000  Level Fort Worth Center
15:46 35.2642 -97.5636 91° East 440 506 39,000  Level Fort Worth Center
15:47 35.2686 -97.3856 88° East 454 522 39,000  Level Fort Worth Center
15:48 35.2683 -97.2356 90° East 454 522 39,000  Level Fort Worth Center
15:49 35.2619 -97.0856 93° East 454 522 39,000  Level Fort Worth Center
15:50 35.2614 -96.9356 90° East 449 517 39,000  Level Fort Worth Center
15:51 35.2608 -96.7806 90° East 444 511 39,000  Level Fort Worth Center
15:52 35.2600 -96.6306 90° East 444 511 39,000  Level Fort Worth Center
15:53 35.2589 -96.4806 90° East 439 505 39,000  Level Fort Worth Center
15:54 35.2578 -96.3306 90° East 439 505 39,000  Level Fort Worth Center
15:55 35.2522 -96.1806 93° East 439 505 39,000  Level Fort Worth Center
15:56 35.2528 -96.0331 90° East 439 505 39,000  Level Fort Worth Center
15:58 35.2483 -95.7294 91° East 420 483 39,000  Level Memphis Center
15:59 35.2464 -95.5792 91° East 425 489 39,000  Level Memphis Center
16:00 35.2442 -95.4292 91° East 435 501 39,000  Level Memphis Center
16:01 35.2397 -95.2814 92° East 441 507 39,000  Level Memphis Center
16:02 35.2372 -95.1311 91° East 441 507 39,000  Level Memphis Center
16:03 35.2344 -94.9836 91° East 441 507 39,000  Level Memphis Center
16:04 35.2314 -94.8361 91° East 441 507 39,000  Level Memphis Center
16:05 35.2286 -94.6858 91° East 441 507 39,000  Level Memphis Center
16:06 35.2231 -94.5383 93° East 441 507 39,000  Level Memphis Center
16:07 35.2194 -94.3931 92° East 441 507 39,000  Level Memphis Center
16:08 35.2158 -94.2456 92° East 436 502 39,000  Level Memphis Center
16:09 35.2122 -94.0931 92° East 436 502 39,000  Level Memphis Center
16:10 35.2061 -93.9478 93° East 436 502 39,000  Level Memphis Center
16:11 35.2039 -93.8003 91° East 441 507 39,000  Level Memphis Center
16:12 35.1992 -93.6706 93° East 436 502 39,000  Level Memphis Center
16:13 35.1925 -93.5256 93° East 429 494 39,000  Level Memphis Center
16:14 35.1858 -93.3728 93° East 429 494 39,000  Level Memphis Center
16:15 35.1831 -93.2278 91° East 436 502 39,000  Level Memphis Center
16:16 35.1761 -93.0753 93° East 441 507 39,000  Level Memphis Center
16:17 35.1708 -92.9253 92° East 441 507 39,000  Level Memphis Center
16:18 35.1656 -92.7728 92° East 436 502 39,000  Level Memphis Center
16:19 35.1578 -92.6278 94° East 441 507 39,000  Level Memphis Center
16:20 35.1522 -92.4803 93° East 441 507 39,000  Level Memphis Center
16:21 35.1464 -92.3253 93° East 447 514 39,000  Level Memphis Center
16:22 35.1361 -92.1625 94° East 442 509 39,000  Level Memphis Center
16:23 35.1300 -92.0150 93° East 442 509 39,000  Level Memphis Center
16:24 35.1236 -91.8650 93° East 442 509 39,000  Level Memphis Center
16:25 35.1189 -91.7203 92° East 435 501 39,000  Level Memphis Center
16:26 35.1078 -91.5756 95° East 435 501 39,000  Level Memphis Center
16:27 35.1008 -91.4256 93° East 435 501 39,000  Level Memphis Center
16:28 35.0958 -91.2808 92° East 430 495 39,000  Level Memphis Center
16:29 35.0842 -91.1361 96° East 430 495 39,000  Level Memphis Center
16:30 35.0767 -90.9839 93° East 435 501 39,000  Level Memphis Center
16:31 35.0689 -90.8519 94° East 435 501 39,000  Level Memphis Center
16:32 35.0611 -90.7047 94° East 435 501 39,000  Level Memphis Center
16:33 35.0511 -90.5575 95° East 441 507 39,000  Level Memphis Center
16:34 35.0428 -90.4078 94° East 436 502 39,000  Level Memphis Center
16:35 35.0367 -90.2758 93° East 436 502 39,000  Level Memphis Center
16:36 35.0239 -90.1008 95° East 436 502 39,000  Level Memphis Center
16:37 35.0172 -89.9564 93° East 436 502 39,000  Level Memphis Center
16:38 34.9978 -89.8069 99° East 436 502 39,000  Level Memphis Center
16:39 34.9739 -89.6525 101° East 444 511 39,000  Level Memphis Center
16:40 34.9503 -89.5211 102° East 462 532 39,000  Level Memphis Center
16:41 34.9261 -89.3769 102° East 450 518 39,000  Level Memphis Center
16:42 34.9042 -89.2303 100° East 445 512 39,000  Level Memphis Center
16:43 34.8819 -89.0839 100° East 445 512 39,000  Level Memphis Center
16:44 34.8594 -88.9372 101° East 445 512 39,000  Level Memphis Center
16:45 34.8344 -88.7783 101° East 445 512 39,000  Level Memphis Center
16:46 34.8117 -88.6319 101° East 445 512 39,000  Level Memphis Center
16:47 34.7933 -88.5161 101° East 445 512 39,000  Level Memphis Center
16:48 34.7681 -88.3600 101° East 440 506 39,000  Level Memphis Center
16:49 34.7467 -88.2164 100° East 435 501 39,000  Level Memphis Center
16:50 34.7208 -88.0453 100° East 451 519 39,000 -540 Level Memphis Center
16:51 34.6950 -87.8994 102° East 445 512 38,000 -960 Descending Memphis Center
16:53 34.6592 -87.6650 100° East 444 511 36,400 -1,440 Descending Atlanta Center
16:54 34.6361 -87.5203 101° East 444 511 34,100 -1,740 Descending Atlanta Center
16:55 34.6072 -87.3650 103° East 439 505 33,000 -600 Descending Atlanta Center
16:56 34.5794 -87.2278 104° East 427 491 33,000  Level Atlanta Center
16:57 34.5539 -87.0856 102° East 416 479 33,000  Level Atlanta Center
16:58 34.5281 -86.9458 103° East 416 479 33,000 -300 Level Atlanta Center
16:59 34.5000 -86.8064 104° East 416 479 32,500 -780 Descending Atlanta Center
17:00 34.4736 -86.6719 103° East 416 479 31,500 -780 Descending Atlanta Center
17:01 34.4472 -86.5350 103° East 416 479 31,000 -300 Descending Atlanta Center
17:02 34.4208 -86.4008 103° East 416 479 31,000  Level Atlanta Center
17:03 34.3942 -86.2642 103° East 416 479 31,000 -240 Level Atlanta Center
17:04 34.3672 -86.1250 103° East 416 479 30,600 -1,140 Descending Atlanta Center
17:05 34.3403 -85.9961 104° East 411 473 28,800 -1,800 Descending Atlanta Center
17:06 34.3169 -85.8697 103° East 398 458 27,000 -1,740 Descending Atlanta Center
17:07 34.2936 -85.7611 105° East 382 440 25,400 -1,740 Descending Atlanta Center
17:08 34.2700 -85.6425 104° East 370 426 23,600 -1,860 Descending Atlanta Center
17:09 34.2425 -85.5239 106° East 364 419 21,700 -1,800 Descending Atlanta Center
17:10 34.2083 -85.4128 110° East 364 419 20,000 -1,740 Descending Atlanta Center
17:11 34.1739 -85.3042 111° Southeast 348 400 18,300 -1,740 Descending Atlanta Center
17:12 34.1417 -85.1933 109° East 348 400 16,600 -1,800 Descending Atlanta Center
17:13 34.1069 -85.0875 112° Southeast 348 400 14,800 -1,320 Descending Atlanta Center
17:14 34.0600 -84.9842 119° Southeast 335 386 14,000 -840 Descending Atlanta Center
17:15 33.9958 -84.9058 135° Southeast 326 375 13,200 -900 Descending Atlanta Center
17:16 33.9336 -84.8275 134° Southeast 326 375 12,300 -600 Descending Atlanta Center
17:17 33.8694 -84.7469 134° Southeast 326 375 12,000 -180 Descending Atlanta Center
17:18 33.8167 -84.6833 135° Southeast 322 371 12,000  Level Atlanta TRACON
17:19 33.7667 -84.6000 126° Southeast 318 366 12,000 -540 Level Atlanta TRACON
17:20 33.7333 -84.5167 116° Southeast 313 360 11,000 -1,260 Descending Atlanta TRACON
17:21 33.7333 -84.4000 90° East 313 360 9,500 -1,500 Descending Atlanta TRACON
17:22 33.7333 -84.3167 90° East 297 342 8,000 -1,560 Descending Atlanta TRACON
17:23 33.7333 -84.2167 90° East 294 338 6,400 -1,200 Descending Atlanta TRACON
17:24 33.6833 -84.1667 140° Southeast 264 304 5,700 -1,200 Descending Atlanta TRACON
17:25 33.6500 -84.2167 231° Southwest 219 252 4,000 -1,440 Descending Atlanta TRACON
17:26 33.6500 -84.3000 270° West 204 235 2,900 -1,020 Descending Atlanta TRACON
17:27 33.6500 -84.3500 270° West 156 180 2,000 -900 Descending Atlanta TRACON
17:28 33.6500 -84.4000 270° West 148 170 1,200 -840 Descending Atlanta TRACON
17:30 33.6333 -84.4167 239° Southwest  Level FlightAware Approximate